Peyton, CO

9:38 PM MST on February 12, 2016 (GMT -0700)
Meadow Lake

Weather History for KFLY - October, 2012

Change the Weather History Date:

Saturday, October 27, 2012

  Actual Average (KCOS) Record (KCOS)
Temperature  
Mean Temperature 32 °F 46 °F  
Max Temperature 44 °F 59 °F 79 °F (1937)
Min Temperature 21 °F 32 °F 16 °F (1997)
Degree Days  
Heating Degree Days 32 19  
Month to date heating degree days 404  
Since 1 July heating degree days 594  
Cooling Degree Days 0 0  
Month to date cooling degree days 0  
Year to date cooling degree days 454  
Moisture  
Dew Point 20 °F    
Average Humidity 65    
Maximum Humidity 99    
Minimum Humidity 31    
Precipitation  
Precipitation 0.00 in 0.02 in 0.29 in (1911)
Month to date precipitation 0.73  
Year to date precipitation 15.71  
Snow  
Snow 0.00 in 0.10 in 3.00 in (1996)
Month to date snowfall 2.4  
Since 1 July snowfall 2.6  
Since 1 September snowfall 2.6  
Snow Depth -    
Sea Level Pressure  
Sea Level Pressure 30.13 in    
Wind  
Wind Speed 7 mph (SW)    
Max Wind Speed 12 mph    
Max Gust Speed 20 mph    
Visibility 8 miles    
Events Fog    
T = Trace of Precipitation, MM = Missing Value Source: NWS Daily Summary

Daily Weather History Graph

Daily Weather History Graph

Search for Another Location

Airport or City:

Trip Planner

Search our weather history database for the weather conditions in past years. The results will help you decide how hot, cold, wet, or windy it might be!

Date:

Astronomy

Oct. 27, 2012 Rise Set
Actual Time 7:20 AM MDT 6:02 PM MDT
Civil Twilight 6:53 AM MDT 6:30 PM MDT
Nautical Twilight 6:21 AM MDT 7:01 PM MDT
Astronomical Twilight 5:50 AM MDT 7:32 PM MDT
Moon 4:49 PM MDT (10/27) 5:18 AM MDT (10/27)
Length of Visible Light 11h 36m
Length of Day
10h 42m
Waxing Gibbous, 96% of the Moon is Illuminated
Oct 27
Waxing Gibbous
Oct 29
Full
Nov 6
Last Quarter
Nov 13
New
Nov 20
First Quarter

Hourly Weather History & Observations

Time (MDT) Temp. Windchill Dew Point Humidity Pressure Visibility Wind Dir Wind Speed Gust Speed Precip Events Conditions
12:12 AM 24.4 °F 13.5 °F 24.1 °F 99% 30.17 in 0.2 mi SSW 11.5 mph - N/A Fog Light Freezing Fog
12:32 AM 24.3 °F 13.9 °F 23.9 °F 99% 30.17 in 0.2 mi South 10.4 mph - N/A Fog Light Freezing Fog
12:52 AM 23.7 °F 12.6 °F 23.4 °F 99% 30.16 in 0.5 mi South 11.5 mph - N/A Fog Light Freezing Fog
1:12 AM 23.7 °F 14.0 °F 23.4 °F 99% 30.16 in 0.2 mi South 9.2 mph 16.1 mph N/A Fog Light Freezing Fog
1:32 AM 23.5 °F 13.7 °F 23.0 °F 98% 30.14 in 0.5 mi SSW 9.2 mph - N/A Fog Light Freezing Fog
1:52 AM 23.4 °F 15.2 °F 22.8 °F 98% 30.13 in 0.5 mi SW 6.9 mph - N/A Fog Light Freezing Fog
2:32 AM 23.0 °F 13.9 °F 22.3 °F 97% 30.13 in 0.8 mi WSW 8.1 mph - N/A   Overcast
2:52 AM 23.0 °F 13.9 °F 22.6 °F 99% 30.13 in 0.5 mi West 8.1 mph - N/A Fog Light Freezing Fog
3:12 AM 22.6 °F 13.4 °F 21.9 °F 97% 30.13 in 4.0 mi West 8.1 mph - N/A   Mostly Cloudy
3:32 AM 23.0 °F 13.9 °F 22.5 °F 98% 30.12 in 5.0 mi West 8.1 mph - N/A   Overcast
3:52 AM 22.3 °F - 21.4 °F 96% 30.10 in 7.0 mi Calm Calm - N/A   Scattered Clouds
4:12 AM 22.1 °F - 21.2 °F 96% 30.10 in 7.0 mi Calm Calm - N/A   Clear
4:32 AM 21.7 °F 13.2 °F 20.8 °F 96% 30.10 in 7.0 mi North 6.9 mph - N/A   Clear
4:52 AM 21.7 °F 15.5 °F 20.3 °F 94% 30.10 in 10.0 mi North 4.6 mph - N/A   Clear
5:12 AM 22.5 °F 13.2 °F 20.5 °F 92% 30.10 in 10.0 mi North 8.1 mph - N/A   Clear
5:52 AM 24.8 °F 16.1 °F 21.2 °F 86% 30.10 in 10.0 mi NW 8.1 mph - N/A   Clear
6:12 AM 25.3 °F 19.7 °F 20.3 °F 81% 30.10 in 10.0 mi NNW 4.6 mph - N/A   Clear
6:32 AM 26.4 °F 18.9 °F 19.9 °F 77% 30.11 in 10.0 mi NNW 6.9 mph - N/A   Clear
6:52 AM 25.3 °F 18.5 °F 19.9 °F 80% 30.11 in 10.0 mi NNW 5.8 mph - N/A   Clear
7:12 AM 24.8 °F 17.9 °F 19.6 °F 81% 30.12 in 10.0 mi NNW 5.8 mph - N/A   Clear
7:32 AM 25.9 °F 18.2 °F 19.8 °F 78% 30.12 in 10.0 mi NNW 6.9 mph - N/A   Clear
8:12 AM 29.7 °F 22.8 °F 21.7 °F 72% 30.12 in 10.0 mi NNW 6.9 mph - N/A   Clear
8:32 AM 31.5 °F 23.5 °F 20.7 °F 64% 30.12 in 10.0 mi North 9.2 mph - N/A   Clear
8:52 AM 34.5 °F 28.6 °F 22.1 °F 61% 30.13 in 10.0 mi North 6.9 mph - N/A   Clear
9:32 AM 38.3 °F 33.2 °F 18.9 °F 46% 30.13 in 10.0 mi NNW 6.9 mph 16.1 mph N/A   Clear
9:52 AM 39.6 °F 33.0 °F 17.2 °F 41% 30.13 in 10.0 mi NNE 10.4 mph 18.4 mph N/A   Clear
10:12 AM 38.3 °F 31.9 °F 17.6 °F 43% 30.12 in 10.0 mi NNE 9.2 mph 19.6 mph N/A   Clear
10:32 AM 39.2 °F 34.2 °F 15.4 °F 38% 30.11 in 10.0 mi NE 6.9 mph - N/A   Clear
10:52 AM 40.3 °F 35.5 °F 14.2 °F 35% 30.11 in 10.0 mi NNE 6.9 mph - N/A   Clear
11:12 AM 39.4 °F 34.5 °F 16.9 °F 40% 30.11 in 10.0 mi ENE 6.9 mph - N/A   Clear
11:32 AM 42.1 °F 39.2 °F 15.8 °F 35% 30.12 in 10.0 mi NNE 4.6 mph - N/A   Clear
11:52 AM 44.2 °F 40.3 °F 15.1 °F 31% 30.11 in 10.0 mi ESE 6.9 mph - N/A   Clear
12:12 PM 41.5 °F 37.8 °F 16.2 °F 36% 30.12 in 10.0 mi East 5.8 mph - N/A   Clear
12:32 PM 43.7 °F 40.3 °F 15.8 °F 33% 30.12 in 7.0 mi SE 5.8 mph - N/A   Clear
12:52 PM 43.9 °F 39.9 °F 15.3 °F 32% 30.10 in 10.0 mi SSE 6.9 mph - N/A   Clear
1:12 PM 44.2 °F 42.7 °F 15.1 °F 31% 30.10 in 10.0 mi SSE 3.5 mph - N/A   Clear
1:32 PM 44.1 °F 40.1 °F 15.1 °F 31% 30.10 in 10.0 mi SSE 6.9 mph - N/A   Clear
1:52 PM 43.0 °F 38.8 °F 15.6 °F 33% 30.09 in 10.0 mi SSE 6.9 mph - N/A   Clear
2:12 PM 42.1 °F 38.4 °F 16.2 °F 35% 30.09 in 10.0 mi SSE 5.8 mph - N/A   Clear
2:32 PM 42.3 °F 40.5 °F 16.3 °F 35% 30.09 in 10.0 mi SSE 3.5 mph - N/A   Clear
2:52 PM 41.9 °F 36.9 °F 16.2 °F 35% 30.10 in 10.0 mi SSW 8.1 mph - N/A   Clear
3:12 PM 41.0 °F 35.2 °F 22.8 °F 48% 30.10 in 10.0 mi South 9.2 mph 19.6 mph N/A   Clear
3:32 PM 40.8 °F 36.2 °F 23.2 °F 50% 30.10 in 10.0 mi South 6.9 mph - N/A   Clear
3:52 PM 44.4 °F 41.2 °F 19.4 °F 37% 30.12 in 10.0 mi SSW 5.8 mph - N/A   Clear
4:12 PM 44.8 °F 42.4 °F 19.4 °F 36% 30.12 in 10.0 mi SSE 4.6 mph 17.3 mph N/A   Clear
4:32 PM 44.1 °F - 20.3 °F 39% 30.12 in 10.0 mi Calm Calm - N/A   Clear
4:52 PM 43.7 °F - 20.7 °F 40% 30.12 in 10.0 mi Calm Calm - N/A   Clear
5:12 PM 42.3 °F 37.9 °F 21.7 °F 44% 30.12 in 10.0 mi SSE 6.9 mph - N/A   Clear
5:32 PM 38.5 °F 32.7 °F 23.0 °F 54% 30.12 in 10.0 mi SSE 8.1 mph - N/A   Clear
5:52 PM 35.8 °F 30.1 °F 23.9 °F 62% 30.13 in 10.0 mi South 6.9 mph - N/A   Clear
6:12 PM 33.8 °F 27.7 °F 24.1 °F 68% 30.13 in 10.0 mi South 6.9 mph - N/A   Clear
6:32 PM 32.4 °F 26.0 °F 23.9 °F 71% 30.14 in 10.0 mi South 6.9 mph - N/A   Clear
6:52 PM 32.7 °F 29.6 °F 24.3 °F 71% 30.16 in 10.0 mi South 3.5 mph - N/A   Clear
7:12 PM 30.6 °F 27.1 °F 23.5 °F 75% 30.16 in 10.0 mi SSE 3.5 mph - N/A   Clear
7:32 PM 31.1 °F 23.1 °F 23.7 °F 74% 30.16 in 10.0 mi SSW 9.2 mph - N/A   Clear
7:52 PM 31.3 °F 24.7 °F 22.6 °F 70% 30.17 in 10.0 mi South 6.9 mph - N/A   Clear
8:12 PM 30.9 °F 21.7 °F 21.0 °F 67% 30.16 in 10.0 mi SSW 11.5 mph - N/A   Clear
8:32 PM 30.4 °F 22.9 °F 20.5 °F 67% 30.17 in 10.0 mi SW 8.1 mph - N/A   Clear
8:52 PM 28.4 °F 21.2 °F 19.9 °F 71% 30.18 in 10.0 mi WSW 6.9 mph - N/A   Clear
9:12 PM 29.1 °F - 20.3 °F 70% 30.19 in 10.0 mi Calm Calm - N/A   Clear
9:32 PM 29.3 °F 24.3 °F 19.8 °F 68% 30.18 in 10.0 mi SSW 4.6 mph - N/A   Clear
9:52 PM 28.9 °F 22.8 °F 20.3 °F 70% 30.19 in 10.0 mi WSW 5.8 mph - N/A   Clear
10:12 PM 29.3 °F 22.3 °F 20.5 °F 70% 30.18 in 10.0 mi WSW 6.9 mph - N/A   Clear
10:32 PM 30.0 °F 23.2 °F 21.2 °F 70% 30.19 in 10.0 mi WSW 6.9 mph - N/A   Clear
10:52 PM 29.7 °F 22.0 °F 20.8 °F 70% 30.18 in 10.0 mi WSW 8.1 mph - N/A   Clear
11:12 PM 29.1 °F 22.1 °F 20.3 °F 70% 30.18 in 10.0 mi WSW 6.9 mph - N/A   Clear
11:32 PM 29.8 °F 23.0 °F 20.3 °F 68% 30.17 in 10.0 mi WSW 6.9 mph - N/A   Clear
11:52 PM 28.9 °F 23.9 °F 20.1 °F 70% 30.17 in 10.0 mi WSW 4.6 mph - N/A   Clear